Vertical_Velocity
3 -0 2 2 -1 -1 -0 -0 0 -2 -2 -2 -0 -2 -0 -1 -1 -2 -2 -1 -0 -1
3 1 -3 -0 -1 0 1 1 -1 -1 -1 -1 -0 -1 -2 -0 -2 -2 -1 -2 -2 -1
0 -2 -0 1 1 0 1 -1 -2 -0 -0 -1 -1 -1 -1 0 -1 -1 -1 -1 -1 -2
2 2 1 -1 -1 -1 1 -1 -2 1 0 -1 -0 -1 -0 -2 -2 -1 -1 -2 -0 -0
0 -2 1 -1 2 2 0 -1 -1 -0 -1 -1 -1 -2 -2 -1 -1 -2 -1 -0 -3 -1
-0 -1 1 2 1 -1 -3 -1 -2 -2 -1 -2 -2 -1 -1 -2 -1 -1 -1 -1 -2 0
2 2 0 -1 -1 -3 -4 -1 -3 -2 -1 -1 1 -0 -2 -3 -3 -2 -2 -0 -0 -0
-0 -0 -3 -3 -2 -1 -3 -5 -2 -3 -2 -2 -3 -4 -4 -2 -2 -2 -2 -0 -0 -1
-2 -2 -2 -0 -3 -6 -2 -3 -4 -3 -4 -3 -1 0 -0 -3 -3 -1 -2 -1 2 1
1 1 -2 -2 -0 -2 -1 -1 -1 -1 -3 -2 -1 -0 -2 -1 -5 -4 -2 -2 -2 -2
-3 -1 -0 -2 -1 -2 -2 -3 -5 -3 -1 -2 1 -1 -3 -4 -4 -3 -0 -1 0 -4
1 -1 -1 -2 -4 -5 -2 -1 -1 -2 -2 -7 -2 -2 1 -2 -5 -5 -4 1 -0 1
-3 -3 -1 -1 -2 -6 -7 -4 -5 -3 -2 -1 -7 2 -2 -0 -5 -13 -9 1 -1 1
-0 -4 -4 -3 -1 -6 -5 -2 -2 -9 -6 -5 1 -3 1 1 -6 -3 -11 -4 -2 2
Height
3127 3127 3126 3125 3124 3124 3123 3121 3119 3118 3116 3113 3110 3107 3104 3101 3099 3096 3094 3091 3088 3085
3122 3122 3121 3121 3120 3119 3118 3116 3113 3111 3108 3105 3102 3099 3097 3094 3091 3089 3085 3083 3080 3077
3118 3117 3117 3116 3115 3113 3111 3109 3106 3104 3101 3098 3095 3092 3089 3086 3083 3080 3077 3074 3072 3069
3113 3112 3111 3109 3108 3106 3104 3101 3099 3097 3094 3091 3087 3084 3080 3077 3073 3070 3068 3064 3061 3059
3106 3106 3104 3102 3100 3098 3096 3093 3091 3088 3084 3081 3077 3073 3069 3065 3063 3059 3056 3053 3049 3047
3099 3098 3096 3094 3092 3091 3088 3085 3081 3078 3074 3070 3066 3063 3059 3054 3050 3048 3044 3041 3039 3036
3092 3091 3090 3087 3084 3081 3077 3074 3070 3067 3063 3059 3054 3051 3046 3043 3039 3034 3031 3028 3024 3021
3086 3084 3081 3078 3075 3070 3067 3064 3060 3056 3052 3047 3043 3039 3034 3029 3025 3021 3017 3014 3010 3006
3077 3074 3071 3067 3064 3061 3057 3053 3049 3045 3039 3035 3032 3028 3023 3018 3011 3007 3003 2999 2995 2992
3068 3064 3061 3056 3053 3050 3046 3042 3038 3034 3029 3024 3020 3015 3010 3004 2998 2993 2989 2985 2981 2977
3057 3054 3050 3046 3043 3039 3035 3031 3027 3022 3017 3012 3007 3003 2997 2991 2984 2980 2976 2972 2968 2964
3046 3043 3040 3037 3033 3030 3024 3020 3015 3010 3004 2999 2995 2990 2985 2979 2973 2969 2965 2961 2956 2953
3037 3033 3030 3026 3022 3019 3014 3008 3003 2997 2993 2988 2983 2979 2973 2968 2962 2958 2954 2950 2946 2943
3028 3024 3021 3017 3013 3008 3002 2996 2991 2985 2981 2976 2971 2967 2963 2959 2952 2947 2943 2939 2936 2932